| time (UTC) | temp F | wind direction | speed MPH | gust MPH | rain 1hr in | rain 24hr in | rain mn in | humidity % | barometer mb |
| 20260504045027 | 65 | 56 | 0.0 | 1.0 | 0.00 | 0.00 | 0.00 | 50 | 1007.6 |
| 20260504044107 | 66 | 255 | 2.0 | 4.0 | 0.00 | 0.00 | 0.00 | 49 | 1007.5 |
| 20260504043047 | 68 | 283 | 2.0 | 3.0 | 0.00 | 0.00 | 0.00 | 46 | 1007.6 |
| 20260504042027 | 68 | 139 | 0.0 | 3.0 | 0.00 | 0.00 | 0.00 | 43 | 1007.5 |
| 20260504041128 | 68 | 246 | 0.0 | 1.0 | 0.00 | 0.00 | 0.00 | 43 | 1007.5 |
| 20260504040028 | 70 | 0.0 | 0.0 | 0.00 | 0.00 | 0.00 | 45 | 1007.4 | |
| 20260504035028 | 71 | 236 | 0.0 | 2.0 | 0.00 | 0.00 | 0.00 | 42 | 1007.2 |
| 20260504034027 | 72 | 298 | 0.0 | 2.0 | 0.00 | 0.00 | 0.00 | 39 | 1007.1 |
| 20260504033028 | 73 | 35 | 0.0 | 1.0 | 0.00 | 0.00 | 0.00 | 40 | 1007.0 |
| 20260504032029 | 74 | 157 | 2.0 | 6.0 | 0.00 | 0.00 | 0.00 | 37 | 1006.9 |
| 20260504031028 | 76 | 143 | 1.0 | 5.0 | 0.00 | 0.00 | 0.00 | 38 | 1006.9 |
| 20260504030029 | 78 | 250 | 2.0 | 5.0 | 0.00 | 0.00 | 0.00 | 36 | 1006.8 |
| 20260504025028 | 79 | 194 | 0.0 | 2.0 | 0.00 | 0.00 | 0.00 | 36 | 1006.8 |
| 20260504024039 | 81 | 162 | 4.0 | 6.0 | 0.00 | 0.00 | 0.00 | 35 | 1006.8 |
| 20260504023029 | 83 | 171 | 1.0 | 5.0 | 0.00 | 0.00 | 0.00 | 35 | 1006.8 |
| 20260504022028 | 86 | 191 | 3.0 | 6.0 | 0.00 | 0.00 | 0.00 | 33 | 1006.9 |
| 20260504021029 | 87 | 177 | 2.0 | 5.0 | 0.00 | 0.00 | 0.00 | 30 | 1006.9 |
| 20260504020149 | 87 | 149 | 0.0 | 1.0 | 0.00 | 0.00 | 0.00 | 30 | 1007.0 |
| 20260504015029 | 89 | 100 | 3.0 | 8.0 | 0.00 | 0.00 | 0.00 | 29 | 1007.1 |
| 20260504014030 | 90 | 0.0 | 0.0 | 0.00 | 0.00 | 0.00 | 26 | 1007.2 | |
| 20260504013029 | 90 | 52 | 1.0 | 5.0 | 0.00 | 0.00 | 0.00 | 27 | 1007.3 |
| 20260504012050 | 90 | 109 | 1.0 | 4.0 | 0.00 | 0.00 | 0.00 | 28 | 1007.4 |
| 20260504011030 | 89 | 0.0 | 0.0 | 0.00 | 0.00 | 0.00 | 28 | 1007.5 | |
| 20260504010030 | 88 | 249 | 2.0 | 4.0 | 0.00 | 0.00 | 0.00 | 28 | 1007.6 |
| 20260504005030 | 88 | 244 | 4.0 | 5.0 | 0.00 | 0.00 | 0.00 | 29 | 1007.7 |
| 20260504004030 | 87 | 84 | 3.0 | 6.0 | 0.00 | 0.00 | 0.00 | 29 | 1007.9 |
| 20260504003030 | 87 | 46 | 1.0 | 5.0 | 0.00 | 0.00 | 0.00 | 30 | 1008.0 |
| 20260504002031 | 87 | 58 | 1.0 | 6.0 | 0.00 | 0.00 | 0.00 | 29 | 1008.1 |
| 20260504001030 | 86 | 46 | 5.0 | 11.0 | 0.00 | 0.00 | 0.00 | 31 | 1008.2 |
| 20260504000031 | 87 | 80 | 4.0 | 11.0 | 0.00 | 0.00 | 0.00 | 31 | 1008.3 |
| 20260503235031 | 87 | 47 | 1.0 | 5.0 | 0.00 | 0.00 | 0.00 | 30 | 1008.4 |
| 20260503234050 | 87 | 53 | 4.0 | 9.0 | 0.00 | 0.00 | 0.00 | 30 | 1008.5 |
| 20260503233031 | 86 | 178 | 3.0 | 8.0 | 0.00 | 0.00 | 0.00 | 30 | 1008.7 |
| 20260503232051 | 87 | 53 | 2.0 | 8.0 | 0.00 | 0.00 | 0.00 | 29 | 1008.8 |
| 20260503231031 | 87 | 73 | 0.0 | 2.0 | 0.00 | 0.00 | 0.00 | 29 | 1008.9 |
| 20260503230031 | 87 | 60 | 5.0 | 9.0 | 0.00 | 0.00 | 0.00 | 30 | 1009.0 |
| 20260503225032 | 87 | 310 | 1.0 | 6.0 | 0.00 | 0.00 | 0.00 | 30 | 1009.2 |
| 20260503224031 | 87 | 329 | 4.0 | 15.0 | 0.00 | 0.00 | 0.00 | 31 | 1009.3 |
| 20260503223051 | 87 | 284 | 2.0 | 7.0 | 0.00 | 0.00 | 0.00 | 31 | 1009.5 |
| 20260503222032 | 87 | 304 | 3.0 | 9.0 | 0.00 | 0.00 | 0.00 | 31 | 1009.5 |
| 20260503221032 | 87 | 251 | 1.0 | 6.0 | 0.00 | 0.00 | 0.00 | 29 | 1009.6 |
| 20260503220053 | 87 | 304 | 2.0 | 7.0 | 0.00 | 0.00 | 0.00 | 30 | 1009.8 |
| 20260503215034 | 86 | 299 | 2.0 | 6.0 | 0.00 | 0.00 | 0.00 | 29 | 1009.9 |
| 20260503214032 | 86 | 56 | 2.0 | 6.0 | 0.00 | 0.00 | 0.00 | 30 | 1010.1 |
| 20260503213032 | 85 | 59 | 3.0 | 12.0 | 0.00 | 0.00 | 0.00 | 31 | 1010.3 |
| 20260503212032 | 86 | 11 | 1.0 | 5.0 | 0.00 | 0.00 | 0.00 | 30 | 1010.4 |
| 20260503211053 | 85 | 305 | 1.0 | 5.0 | 0.00 | 0.00 | 0.00 | 30 | 1010.5 |
| 20260503210033 | 85 | 48 | 3.0 | 10.0 | 0.00 | 0.00 | 0.00 | 31 | 1010.6 |
| 20260503205052 | 84 | 252 | 4.0 | 8.0 | 0.00 | 0.00 | 0.00 | 30 | 1010.8 |
| 20260503204033 | 83 | 63 | 1.0 | 5.0 | 0.00 | 0.00 | 0.00 | 32 | 1011.0 |
| 20260503203033 | 83 | 47 | 5.0 | 14.0 | 0.00 | 0.00 | 0.00 | 34 | 1011.0 |
| 20260503202033 | 83 | 75 | 1.0 | 6.0 | 0.00 | 0.00 | 0.00 | 32 | 1011.1 |
| 20260503201033 | 82 | 34 | 3.0 | 10.0 | 0.00 | 0.00 | 0.00 | 33 | 1011.2 |
| 20260503200053 | 82 | 47 | 5.0 | 13.0 | 0.00 | 0.00 | 0.00 | 35 | 1011.4 |
| 20260503195034 | 82 | 44 | 3.0 | 12.0 | 0.00 | 0.00 | 0.00 | 36 | 1011.5 |
| 20260503194055 | 82 | 15 | 2.0 | 9.0 | 0.00 | 0.00 | 0.00 | 36 | 1011.7 |
| 20260503193033 | 82 | 121 | 2.0 | 7.0 | 0.00 | 0.00 | 0.00 | 36 | 1011.8 |
| 20260503192054 | 81 | 43 | 1.0 | 5.0 | 0.00 | 0.00 | 0.00 | 36 | 1011.9 |
| 20260503191034 | 80 | 58 | 2.0 | 6.0 | 0.00 | 0.00 | 0.00 | 39 | 1012.1 |
| 20260503190034 | 80 | 58 | 3.0 | 7.0 | 0.00 | 0.00 | 0.00 | 38 | 1012.2 |
| 20260503185034 | 80 | 64 | 2.0 | 6.0 | 0.00 | 0.00 | 0.00 | 38 | 1012.2 |
| 20260503184034 | 80 | 59 | 2.0 | 7.0 | 0.00 | 0.00 | 0.00 | 39 | 1012.3 |
| 20260503183034 | 79 | 116 | 1.0 | 4.0 | 0.00 | 0.00 | 0.00 | 38 | 1012.5 |
| 20260503182035 | 79 | 256 | 4.0 | 8.0 | 0.00 | 0.00 | 0.00 | 39 | 1012.5 |
| 20260503181034 | 79 | 269 | 3.0 | 7.0 | 0.00 | 0.00 | 0.00 | 39 | 1012.7 |
| 20260503180035 | 77 | 300 | 3.0 | 8.0 | 0.00 | 0.00 | 0.00 | 39 | 1012.8 |
| 20260503175035 | 76 | 291 | 4.0 | 9.0 | 0.00 | 0.00 | 0.00 | 42 | 1012.8 |
| 20260503174035 | 76 | 300 | 4.0 | 9.0 | 0.00 | 0.00 | 0.00 | 43 | 1012.9 |
| 20260503173035 | 75 | 308 | 2.0 | 7.0 | 0.00 | 0.00 | 0.00 | 44 | 1013.0 |
| 20260503172035 | 75 | 266 | 4.0 | 9.0 | 0.00 | 0.00 | 0.00 | 43 | 1013.1 |
| 20260503171036 | 74 | 273 | 4.0 | 8.0 | 0.00 | 0.00 | 0.00 | 44 | 1013.1 |
| 20260503131038 | 47 | 0.0 | 0.0 | 0.00 | 0.00 | 0.00 | 84 | 1013.0 | |
| 20260503081042 | 58 | 201 | 2.0 | 12.0 | 0.00 | 0.00 | 0.00 | 60 | 1012.8 |
| 20260503072042 | 59 | 250 | 1.0 | 3.0 | 0.00 | 0.00 | 0.00 | 61 | 1012.6 |
| 20260503071042 | 59 | 277 | 2.0 | 4.0 | 0.00 | 0.00 | 0.00 | 61 | 1012.4 |